Location: T�bingen+AIT
(48.5342°N, 9.0700°E)
Time: 15:05:48
(UTC+01:00)

Meteor 2-15 - Pass Details

Date: 14 September 2017
Orbit: 937 x 955 km, 82.5° (Epoch: 17 November)

Event Time Altitude Azimuth Distance (km) Brightness Sun altitude
Rises 22:27:02 0° 352° (N) 3,615 8.2 -26.3°
Reaches altitude 10° 22:29:35 10° 356° (N) 2,664 7.3 -26.6°
Enters shadow 22:35:29 62° 71° (ENE) 1,056 4.4 -27.3°
